![]() |
EMODnet Physics ERDDAP
Easier access to scientific data |
log in|
Brought to you by EMODnet Physics |
| Dataset Title: | NDBC - Collection of dew point temperature (DEWT) TimeSeries - IN SITU MultiPointTimeSeriesObservation
|
| Institution: | NDBC (Dataset ID: TS_DEWT_NDBC) |
| Information: | Summary
| License
| FGDC
| ISO 19115
| Metadata
| Background
| Subset
| Data Access Form
| Make a graph
|
| Name | Last modified | Size | Description | |
|---|---|---|---|---|
| Parent Directory | - | - | ||
| NKLA2_TS_DEWT_012015.nc | 15-Dec-2024 15:42 | 588183 | ||
| NKLA2_TS_DEWT_012016.nc | 15-Dec-2024 15:44 | 588113 | ||
| NKLA2_TS_DEWT_012018.nc | 15-Dec-2024 15:45 | 588171 | ||
| NKLA2_TS_DEWT_012019.nc | 16-Jan-2026 08:57 | 437867 | ||
| NKLA2_TS_DEWT_012020.nc | 16-Jan-2026 09:06 | 588167 | ||
| NKLA2_TS_DEWT_012023.nc | 16-Jan-2026 09:30 | 588198 | ||
| NKLA2_TS_DEWT_012024.nc | 16-Jan-2026 09:41 | 588185 | ||
| NKLA2_TS_DEWT_012025.nc | 16-Jan-2026 09:48 | 588187 | ||
| NKLA2_TS_DEWT_012026.nc | 08-Feb-2026 04:25 | 588200 | ||
| NKLA2_TS_DEWT_022014.nc | 15-Dec-2024 15:40 | 588186 | ||
| NKLA2_TS_DEWT_022015.nc | 15-Dec-2024 15:42 | 588190 | ||
| NKLA2_TS_DEWT_022016.nc | 15-Dec-2024 15:44 | 588157 | ||
| NKLA2_TS_DEWT_022018.nc | 15-Dec-2024 15:45 | 588161 | ||
| NKLA2_TS_DEWT_022019.nc | 16-Jan-2026 08:58 | 588166 | ||
| NKLA2_TS_DEWT_022020.nc | 16-Jan-2026 09:07 | 588158 | ||
| NKLA2_TS_DEWT_022023.nc | 16-Jan-2026 09:30 | 588151 | ||
| NKLA2_TS_DEWT_022024.nc | 16-Jan-2026 09:41 | 588055 | ||
| NKLA2_TS_DEWT_022025.nc | 16-Jan-2026 09:48 | 588162 | ||
| NKLA2_TS_DEWT_032014.nc | 15-Dec-2024 15:41 | 588204 | ||
| NKLA2_TS_DEWT_032015.nc | 15-Dec-2024 15:43 | 429255 | ||
| NKLA2_TS_DEWT_032018.nc | 15-Dec-2024 15:46 | 429285 | ||
| NKLA2_TS_DEWT_032019.nc | 16-Jan-2026 08:58 | 429278 | ||
| NKLA2_TS_DEWT_032020.nc | 16-Jan-2026 09:08 | 429273 | ||
| NKLA2_TS_DEWT_032023.nc | 16-Jan-2026 09:31 | 429278 | ||
| NKLA2_TS_DEWT_032024.nc | 16-Jan-2026 09:42 | 429282 | ||
| NKLA2_TS_DEWT_032025.nc | 16-Jan-2026 09:49 | 429279 | ||
| NKLA2_TS_DEWT_032026.nc | 25-Mar-2026 05:40 | 429280 | ||
| NKLA2_TS_DEWT_042014.nc | 15-Dec-2024 15:41 | 429285 | ||
| NKLA2_TS_DEWT_042015.nc | 15-Dec-2024 15:43 | 429487 | ||
| NKLA2_TS_DEWT_042018.nc | 15-Dec-2024 15:46 | 440076 | ||
| NKLA2_TS_DEWT_042019.nc | 16-Jan-2026 08:59 | 440110 | ||
| NKLA2_TS_DEWT_042020.nc | 16-Jan-2026 09:08 | 440058 | ||
| NKLA2_TS_DEWT_042023.nc | 16-Jan-2026 09:32 | 439029 | ||
| NKLA2_TS_DEWT_042024.nc | 16-Jan-2026 09:43 | 440132 | ||
| NKLA2_TS_DEWT_042025.nc | 16-Jan-2026 09:50 | 440141 | ||
| NKLA2_TS_DEWT_052014.nc | 15-Dec-2024 15:41 | 440153 | ||
| NKLA2_TS_DEWT_052015.nc | 15-Dec-2024 15:43 | 440149 | ||
| NKLA2_TS_DEWT_052018.nc | 15-Dec-2024 15:46 | 440141 | ||
| NKLA2_TS_DEWT_052019.nc | 16-Jan-2026 09:00 | 440150 | ||
| NKLA2_TS_DEWT_052020.nc | 16-Jan-2026 09:09 | 440149 | ||
| NKLA2_TS_DEWT_052023.nc | 16-Jan-2026 09:33 | 440097 | ||
| NKLA2_TS_DEWT_052024.nc | 16-Jan-2026 09:43 | 440154 | ||
| NKLA2_TS_DEWT_052025.nc | 16-Jan-2026 09:50 | 440133 | ||
| NKLA2_TS_DEWT_062014.nc | 15-Dec-2024 15:41 | 440143 | ||
| NKLA2_TS_DEWT_062015.nc | 15-Dec-2024 15:43 | 439813 | ||
| NKLA2_TS_DEWT_062018.nc | 15-Dec-2024 15:47 | 440052 | ||
| NKLA2_TS_DEWT_062019.nc | 16-Jan-2026 09:01 | 440145 | ||
| NKLA2_TS_DEWT_062020.nc | 16-Jan-2026 09:10 | 440101 | ||
| NKLA2_TS_DEWT_062023.nc | 16-Jan-2026 09:33 | 429608 | ||
| NKLA2_TS_DEWT_062024.nc | 16-Jan-2026 09:44 | 429600 | ||
| NKLA2_TS_DEWT_062025.nc | 16-Jan-2026 09:51 | 429609 | ||
| NKLA2_TS_DEWT_072014.nc | 15-Dec-2024 15:41 | 429612 | ||
| NKLA2_TS_DEWT_072015.nc | 15-Dec-2024 15:43 | 429601 | ||
| NKLA2_TS_DEWT_072018.nc | 15-Dec-2024 15:47 | 429607 | ||
| NKLA2_TS_DEWT_072019.nc | 16-Jan-2026 09:02 | 429608 | ||
| NKLA2_TS_DEWT_072020.nc | 16-Jan-2026 09:10 | 429608 | ||
| NKLA2_TS_DEWT_072023.nc | 16-Jan-2026 09:34 | 429602 | ||
| NKLA2_TS_DEWT_072024.nc | 16-Jan-2026 09:45 | 429772 | ||
| NKLA2_TS_DEWT_072025.nc | 16-Jan-2026 09:52 | 588126 | ||
| NKLA2_TS_DEWT_082014.nc | 15-Dec-2024 15:41 | 588165 | ||
| NKLA2_TS_DEWT_082018.nc | 15-Dec-2024 15:48 | 588160 | ||
| NKLA2_TS_DEWT_082019.nc | 16-Jan-2026 09:03 | 587798 | ||
| NKLA2_TS_DEWT_082020.nc | 16-Jan-2026 09:11 | 588199 | ||
| NKLA2_TS_DEWT_082023.nc | 16-Jan-2026 09:35 | 588185 | ||
| NKLA2_TS_DEWT_082024.nc | 16-Jan-2026 09:45 | 588192 | ||
| NKLA2_TS_DEWT_082025.nc | 16-Jan-2026 09:52 | 588197 | ||
| NKLA2_TS_DEWT_092014.nc | 15-Dec-2024 15:42 | 587873 | ||
| NKLA2_TS_DEWT_092019.nc | 16-Jan-2026 09:03 | 588166 | ||
| NKLA2_TS_DEWT_092020.nc | 16-Jan-2026 09:12 | 588184 | ||
| NKLA2_TS_DEWT_092023.nc | 16-Jan-2026 09:36 | 588144 | ||
| NKLA2_TS_DEWT_092024.nc | 16-Jan-2026 09:46 | 588190 | ||
| NKLA2_TS_DEWT_092025.nc | 16-Jan-2026 09:53 | 587674 | ||
| NKLA2_TS_DEWT_102014.nc | 15-Dec-2024 15:42 | 588130 | ||
| NKLA2_TS_DEWT_102019.nc | 16-Jan-2026 09:04 | 588127 | ||
| NKLA2_TS_DEWT_102020.nc | 16-Jan-2026 09:12 | 588043 | ||
| NKLA2_TS_DEWT_102022.nc | 16-Jan-2026 09:28 | 588088 | ||
| NKLA2_TS_DEWT_102023.nc | 16-Jan-2026 09:37 | 588029 | ||
| NKLA2_TS_DEWT_102024.nc | 16-Jan-2026 09:46 | 418954 | ||
| NKLA2_TS_DEWT_102025.nc | 16-Jan-2026 09:54 | 1115747 | ||
| NKLA2_TS_DEWT_112014.nc | 15-Dec-2024 15:42 | 4987901 | ||
| NKLA2_TS_DEWT_112015.nc | 15-Dec-2024 15:43 | 3234233 | ||
| NKLA2_TS_DEWT_112018.nc | 16-Jan-2026 08:55 | 1025635 | ||
| NKLA2_TS_DEWT_112019.nc | 16-Jan-2026 09:04 | 3034881 | ||
| NKLA2_TS_DEWT_112022.nc | 16-Jan-2026 09:29 | 4789388 | ||
| NKLA2_TS_DEWT_112023.nc | 16-Jan-2026 09:38 | 1113124 | ||
| NKLA2_TS_DEWT_112024.nc | 16-Jan-2026 09:47 | 3727303 | ||
| NKLA2_TS_DEWT_112025.nc | 16-Jan-2026 09:54 | 4052440 | ||
| NKLA2_TS_DEWT_122014.nc | 15-Dec-2024 15:42 | 1110812 | ||
| NKLA2_TS_DEWT_122015.nc | 15-Dec-2024 15:44 | 4470418 | ||
| NKLA2_TS_DEWT_122017.nc | 15-Dec-2024 15:44 | 1025706 | ||
| NKLA2_TS_DEWT_122018.nc | 16-Jan-2026 08:56 | 5322404 | ||
| NKLA2_TS_DEWT_122019.nc | 16-Jan-2026 09:05 | 1105151 | ||
| NKLA2_TS_DEWT_122022.nc | 16-Jan-2026 09:29 | 4883806 | ||
| NKLA2_TS_DEWT_122023.nc | 16-Jan-2026 09:39 | 1110358 | ||
| NKLA2_TS_DEWT_122024.nc | 16-Jan-2026 09:47 | 4821055 | ||
| NKLA2_TS_DEWT_122025.nc | 16-Jan-2026 09:55 | 1109489 | ||